Regional Weather Roundup
Issued by NWS

Home | Current Version | Previous Version | Text Only | Print | Product List | Glossary On
Versions: 1 2 3 4 5 6 7 8 9 10 11 12 13 14 15 16 17 18 19 20 21 22 23 24 25 26 27 28 29 30 31 32 33 34 35 36 37 38 39 40 41 42 43 44 45 46 47 48 49 50
000
ASUS44 KMEG 301810
RWRTN
TENNESSEE HOURLY STATE WEATHER ROUNDUP
NATIONAL WEATHER SERVICE MEMPHIS TN
100 PM CDT THU JUL 30 2015

TNZ002-004-019-021-049-052-054-088>092-301900-
WEST TENNESSEE

CITY           SKY/WX    TMP DP  RH WIND       PRES   REMARKS
MEMPHIS INTL   MOSUNNY   89  65  44 N13G20    30.12S HX  91
NWS MEMPHIS      N/A     87 N/A N/A MISG        N/A
JACKSON        SUNNY     90  60  36 NE10      30.13S
DYERSBURG        N/A    N/A N/A N/A MISG        N/A
PARIS          SUNNY     82  63  51 NE9       30.15S
$$

TNZ008-025-027-028-033-062-065-066-301900-
NORTH MIDDLE TENNESSEE

CITY           SKY/WX    TMP DP  RH WIND       PRES   REMARKS
NASHVILLE      MOSUNNY   88  60  38 N8        30.10F
CLARKSVILLE    SUNNY     84  61  45 N9        30.12F
SMYRNA         SUNNY     91  64  40 N10       30.10S HX  92
CROSSVILLE     MOSUNNY   83  69  62 VRB6      30.13F
$$

TNZ061-075-076-078-094-096-097-301900-
SOUTH MIDDLE TENNESSEE

CITY           SKY/WX    TMP DP  RH WIND       PRES   REMARKS
FAYETTEVILLE   MOSUNNY   84  70  61 N8        30.09S
TULLAHOMA      MOSUNNY   84  70  61 NW10      30.11S
WINCHESTER     MOSUNNY   86  73  66 N7        30.08F HX  93
MCMINNVILLE    MOSUNNY   84  73  70 N7        30.09F HX  91
COLUMBIA       SUNNY     88  68  51 VRB5      30.09F HX  91
SHELBYVILLE    SUNNY     88  63  42 N6        30.10F
$$

TNZ017-018-042-046-047-301900-
NORTHEAST TENNESSEE

CITY           SKY/WX    TMP DP  RH WIND       PRES   REMARKS
TRI CITIES     MOSUNNY   88  71  57 VRB5      30.06S HX  94
ELIZABETHTON   PTCLDY    86  72  62 VRB6      30.05F HX  92
$$

TNZ012-013-036-069-073-074-301900-
CENTRAL EAST TENNESSEE

CITY           SKY/WX    TMP DP  RH WIND       PRES   REMARKS
KNOXVILLE      PTSUNNY   87  72  60 NE5       30.04F HX  93
OAK RIDGE      CLOUDY    88  72  58 CALM      30.06F HX  94
GATLINBURG       N/A     86  72  62 VRB3      30.04F HX  92
MORRISTOWN     CLEAR     86  73  66 CALM      30.07F HX  93
$$

TNZ083-085-099-301900-
SOUTHEAST TENNESSEE

CITY           SKY/WX    TMP DP  RH WIND       PRES   REMARKS
CHATTANOOGA    PTSUNNY   89  74  60 N10       30.03F HX  98
$$

SKY/WX REPORTED AS FAIR MEANS FEW OR NO CLOUDS BELOW
12 THOUSAND FEET.




USA.gov is the U.S. government's official web portal to all federal, state and local government web resources and services.